Regional Weather Roundup
Issued by NWS Newport/Morehead, NC

Current Version | Previous Version | Graphics & Text | Print | Product List | Glossary On
Versions: 1 2 3 4 5 6 7 8 9 10 11 12 13 14 15 16 17 18 19 20 21 22 23 24 25 26 27 28 29 30 31 32 33 34 35 36 37 38 39 40 41 42 43 44 45 46 47 48 49 50
314 ASUS42 KMHX 211514 RWRMHX WEATHER ROUNDUP FOR EASTERN NORTH CAROLINA NATIONAL WEATHER SERVICE NEWPORT/MOREHEAD CITY NC 1100 AM EDT MON AUG 21 2017 NOTE: "FAIR" INDICATES FEW OR NO CLOUDS BELOW 12,000 FEET WITH NO SIGNIFICANT WEATHER AND/OR OBSTRUCTIONS TO VISIBILITY NCZ015>017-031-032-045>047-102-103-211600- NORTH COAST CITY SKY/WX TMP DP RH WIND PRES REMARKS EDENTON PTSUNNY 85 77 76 CALM 30.24R ELIZABETH CITY MOSUNNY 84 76 76 VRB6 30.23S KITTY HAWK CLOUDY 82 76 81 CALM 30.22S MANTEO CLOUDY 82 75 80 SE8 30.24R $$ NCZ045>047-081-094-103-104-211600- CENTRAL COAST CITY SKY/WX TMP DP RH WIND PRES REMARKS FRISCO MOSUNNY 88 76 67 E10 30.22R $$ NCZ095-097-098-100-101-211600- SOUTHERN COAST CITY SKY/WX TMP DP RH WIND PRES REMARKS BEAUFORT CLOUDY 82 79 90 VRB3 30.22R CEDAR ISLAND NOT AVBL JACKSONVILLE PTSUNNY 84 78 82 E5 30.20F PINEY ISLAND CLOUDY N/A N/A N/A E10 30.21S WILMINGTON CLOUDY 84 76 76 E10 30.21R $$ NCZ011>013-027>030-043-044-078>080-089-090>093-098-211600- COASTAL PLAIN CITY SKY/WX TMP DP RH WIND PRES REMARKS AHOSKIE N/A 79 75 87 CALM 30.23S CLINTON PTSUNNY 83 77 82 NE3 30.23R ELIZABETHTOWN NOT AVBL GOLDSBORO MOSUNNY 84 81 89 VRB3 30.22R GREENVILLE PTSUNNY 81 75 83 E3 30.24S HAVELOCK CLOUDY 86 76 71 NE6 30.22S KENANSVILLE CLOUDY 79 73 83 E5 30.24R KINSTON NOT AVBL NEW BERN PTSUNNY 84 77 79 E5 30.23R RICHLANDS MOSUNNY 82 74 76 VRB5 30.22F ROCKY MOUNT SUNNY 85 74 69 CALM 30.23R WASHINGTON SUNNY 82 74 76 E5 30.24R WHITEVILLE PTSUNNY 85 76 74 E6 30.19F $$ AMZ130-135-150-152-154-156-158-170-250-252-270-ANZ085-086-088-633-658-670-211600- MARINE OBSERVATIONS STATION/POSITION TIME TEMP WIND PRES WAVE SWELL AIR SEA DIR/SP/G HT/PER HT/PER (UTC) (F) (DEG/KT/KT) (MB) (FT/S) (FT/S) CHESAPEAKE LIGHT NOT AVBL 64 E VA BEACH 1450 79 79 120/ 10/ 12 1024.1 2/ 9 2/ 9 DUCK 1436 81 77 120/ 7/ 7 1023.3 2 E DUCK 1430 80 N/A 2/ 9 OREGON INLET 1436 80 79 50/ 5/ 7 1023.7 13E OREGON INLT 1348 80 N/A 2/ 8 2/ 8 HATTERAS CG 1436 84 79 90/ 6/ 11 1023.4 DIAMOND BUOY 1450 83 84 140/ 10/ 12 1023.0 2/ 8 2/ 8 CAPE LOOKOUT 1500 81 60/ 9/ 11 1023.0 BEAUFORT LAB 1436 82 81 60/ 3/ 5 1022.6 30 SE NEW RVR IN 1408 76 84 340/ 17/ 23 1022.8 30 SE NEW RVR IN 1443 83 N/A 3/ 8 27 SE WRIGHTSVLE 1408 82 84 360/ 6/ 14 1022.6 5 SE WRIGHTSVLE 1408 81 83 130/ 10/ 14 1022.5 225 S CAPE HAT 1450 83 84 120/ 8/ 10 1023.0 3/ 8 3/ 8 41 SE CHARLESTON 1500 83 85 40/ 6/ 8 1021.7 $$

USA.gov is the U.S. government's official web portal to all federal, state and local government web resources and services.